[[{"header":{"parameterUnit":"m.s-1","parameterCategory":1,"la1":30.2991,"la2":30.254,"lo1":-89.0895,"lo2":-89.0444,"dy":0.0017,"dx":0.0017,"nx":28,"ny":28,"refTime":"2025-01-18T03:00:00:Z","depth":0,"parameterNumber":2,"parameterNumberName":"U-component_of_WINDS"},"data":[0,0,0,0,0,0,0,0,0,0,0,0,0,0,0,0,0,0,0,0,0,0,0,0,0,0,0,0,0,0,0,0,0,0,0,0,0,0,0,0,0,0,0,0,0,0,0,0,0,0,0,0,0,0,0,0,0,0,3.2313,3.2314,0,3.2343,3.2343,3.2344,3.232,3.2319,3.2318,3.2318,3.2347,3.2349,3.2351,0,0,0,0,0,0,0,0,0,0,0,0,0,3.2238,3.2239,3.2313,3.2314,3.2314,3.2343,3.2343,3.2344,3.2321,3.2319,3.2318,3.2317,3.2347,3.2349,3.2351,0,0,0,0,0,0,0,0,0,0,0,0,0,3.2269,3.224,3.2313,3.2306,3.2306,3.2343,3.2343,3.2344,3.2321,3.2319,3.2318,3.2317,3.2346,3.2349,3.2351,3.2397,0,0,3.2359,3.236,0,0,0,0,0,0,0,0,3.2267,3.2272,3.2307,3.2307,3.2306,3.2327,3.2328,3.2362,3.2321,3.2315,3.2318,3.2316,3.2342,3.2344,3.2353,3.2398,3.24,3.2359,3.2361,3.2362,3.2363,0,0,0,0,0,0,0,3.2265,3.2271,3.2325,3.2307,3.2307,3.2302,3.2305,3.2334,3.2336,3.2316,3.2314,3.2318,3.2341,3.2351,3.2354,3.24,3.2359,3.2361,3.2363,3.2364,3.2487,3.2488,0,0,0,0,0,0,3.2264,3.2269,3.2324,3.2326,3.2283,3.2304,3.2307,3.2322,3.2336,3.2337,3.2319,3.2317,3.2347,3.2351,3.2355,3.2411,3.2362,3.2364,3.2366,3.2485,3.2487,3.2489,0,0,0,0,0,0,3.2262,3.2269,3.2323,3.2297,3.2304,3.2307,3.2323,3.2323,3.2332,3.2339,3.2339,3.2328,3.2346,3.2351,3.2387,3.2411,3.2365,3.2368,3.2483,3.2486,3.2488,3.2522,0,0,0,0,0,0,3.226,3.2268,3.2285,3.2298,3.2305,3.2355,3.2325,3.2325,3.2337,3.2334,3.2347,3.2348,3.2345,3.2383,3.239,3.2414,3.237,3.2481,3.2484,3.2487,3.2518,3.2525,3.2531,0,0,0,0,0,3.2258,3.2293,3.2286,3.2293,3.2326,3.2356,3.236,3.2356,3.2339,3.2357,3.2361,3.2348,3.2408,3.2387,3.2394,3.242,3.2479,3.2483,3.2487,3.2516,3.2524,3.2531,0,0,0,0,0,0,3.2283,3.2294,3.2287,3.2328,3.2341,3.2352,3.2373,3.2365,3.2383,3.2379,3.2374,3.2377,3.2415,3.2421,3.2398,3.2466,3.2441,3.2446,3.246,3.2468,3.2474,3.2472,3.2372,0,0,0,0,0,3.2293,3.2316,3.2325,3.236,3.2367,3.237,3.2382,3.2379,3.2392,3.2397,3.2404,3.2418,3.244,3.2454,3.2475,3.252,3.2523,3.2541,3.2547,3.2552,3.2556,3.2582,3.2591,3.2501,3.2501,3.2501,0,0,3.2314,3.2324,3.2338,3.2366,3.2375,3.24,3.2374,3.2401,3.2419,3.2401,3.2436,3.2442,3.2457,3.2498,3.2516,3.2504,3.2582,3.2557,3.2561,3.2563,3.2587,3.2596,3.2603,3.2504,3.2504,3.2503,0,0,3.2366,3.2375,3.2406,3.2417,3.2433,3.2435,3.2442,3.2455,3.2459,3.2494,3.2481,3.2503,3.2541,3.2553,3.2564,3.2623,3.2612,3.263,3.2662,3.2687,3.2694,3.2701,3.2723,3.273,3.2635,3.2635,3.2635,0,3.239,3.2427,3.2423,3.2451,3.2464,3.245,3.2482,3.2493,3.2515,3.2524,3.251,3.2559,3.2568,3.2612,3.2627,3.2636,3.2646,3.2628,3.2694,3.27,3.2706,3.2727,3.2735,3.2637,3.2637,3.2636,3.2636,0,3.2457,3.2482,3.2505,3.2528,3.2543,3.2573,3.2575,3.2591,3.2587,3.259,3.2627,3.2638,3.2661,3.2672,3.2667,3.2716,3.2708,3.2694,3.2669,3.2716,3.2736,3.2744,3.264,3.2639,3.2639,3.2638,0,0,3.2523,3.2545,3.2553,3.2564,3.2582,3.2602,3.2632,3.2655,3.267,3.2686,3.2712,3.2746,3.2733,3.2746,3.2743,3.2765,3.2813,3.2748,3.2749,3.2761,3.2869,3.288,3.2889,3.2806,3.2808,3.2809,3.2868,0,3.2576,3.2628,3.2627,3.2676,3.27,3.2689,3.2715,3.273,3.2734,3.2756,3.2761,3.2786,3.2767,3.2775,3.2797,3.2803,3.2835,3.2798,3.2831,3.2832,3.2827,3.2899,3.291,3.2965,3.2876,3.2877,3.2878,0,3.2644,3.2663,3.2715,3.2731,3.2741,3.2765,3.2788,3.2809,3.2825,3.2827,3.2843,3.2837,3.2869,3.2843,3.2887,3.2863,3.2876,3.2882,3.2884,3.2886,3.2858,3.2904,3.2983,3.2991,3.289,3.2889,3.2888,0,3.2688,3.2727,3.2764,3.2773,3.2793,3.281,3.2819,3.2834,3.2849,3.2869,3.2879,3.2903,3.2916,3.2934,3.2935,3.2917,3.298,3.2955,3.2984,3.2984,3.2997,3.2996,3.3079,3.3006,3.3005,3.3005,3.3005,0,3.2747,3.2779,3.2784,3.2806,3.2843,3.2842,3.2878,3.2885,3.29,3.2924,3.2916,3.2939,3.2939,3.2963,3.2964,3.3001,3.3007,3.301,3.301,3.301,3.301,3.3019,3.3015,3.3008,3.3007,3.3007,3.3006,0,3.2802,3.2806,3.2845,3.2862,3.2867,3.2893,3.2907,3.2929,3.2934,3.2964,3.2972,3.2979,3.3007,3.3011,3.3043,3.3044,3.3089,3.3085,3.3083,3.3083,3.3111,3.3109,3.3203,3.3215,3.3134,3.3135,3.3135,0,3.2839,3.2864,3.2883,3.2899,3.2909,3.2935,3.2951,3.2952,3.2968,3.2991,3.301,3.3038,3.3059,3.3105,3.3113,3.3139,3.3135,3.3166,3.3139,3.3139,3.3136,3.3135,3.3138,3.3171,3.3172,3.3173,3.3174,0,3.2905,3.2907,3.293,3.2954,3.2974,3.2993,3.3011,3.3025,3.3028,3.3048,3.3077,3.3094,3.3128,3.3155,3.3181,3.3191,3.3183,3.3183,3.3191,3.3192,3.319,3.3192,3.3098,3.318,3.318,3.3179,3.3179,3.3178,3.2952,3.2975,3.2992,3.3019,3.3033,3.3051,3.3073,3.3081,3.3105,3.3133,3.3133,3.3165,3.3183,3.3217,3.3229,3.3254,3.3244,3.3255,3.3258,3.3261,3.3264,3.3186,3.3259,3.3259,3.3258,3.3258,3.3258,0,3.3018,3.303,3.3055,3.3081,3.3103,3.3095,3.3115,3.3133,3.3162,3.318,3.3202,3.3236,3.3264,3.3275,3.3303,3.3321,3.3318,3.3328,3.3327,3.3329,3.3272,3.3262,3.333,3.333,3.333,3.333,3.333,3.333,3.3055,3.3093,3.3097,3.3142,3.3153,3.3185,3.3198,3.3215,3.3229,3.3268,3.3291,3.3299,3.3315,3.3343,3.3369,3.3371,3.3382,3.3393,3.3395,3.334,3.3333,3.3326,3.3317,3.3396,3.3396,3.3451,3.3451,3.3451]},{"header":{"parameterUnit":"m.s-1","parameterCategory":1,"la1":30.2991,"la2":30.254,"lo1":-89.0895,"lo2":-89.0444,"dy":0.0017,"dx":0.0017,"nx":28,"ny":28,"refTime":"2025-01-18T03:00:00:Z","depth":0,"parameterNumber":3,"parameterNumberName":"V-component_of_WINDS"},"data":[0,0,0,0,0,0,0,0,0,0,0,0,0,0,0,0,0,0,0,0,0,0,0,0,0,0,0,0,0,0,0,0,0,0,0,0,0,0,0,0,0,0,0,0,0,0,0,0,0,0,0,0,0,0,0,0,0,0,-7.7192,-7.7194,0,-7.7338,-7.7339,-7.7341,-7.7315,-7.7312,-7.7309,-7.7307,-7.745,-7.7456,-7.7463,0,0,0,0,0,0,0,0,0,0,0,0,0,-7.6887,-7.6893,-7.7192,-7.7194,-7.7196,-7.7337,-7.7339,-7.7341,-7.7315,-7.7312,-7.7309,-7.7306,-7.7448,-7.7456,-7.7463,0,0,0,0,0,0,0,0,0,0,0,0,0,-7.7025,-7.6895,-7.7192,-7.72,-7.7202,-7.7337,-7.7339,-7.7342,-7.7316,-7.7312,-7.7308,-7.7304,-7.7446,-7.7455,-7.7464,-7.7599,0,0,-7.7493,-7.7497,0,0,0,0,0,0,0,0,-7.7017,-7.7036,-7.7197,-7.7199,-7.7202,-7.7304,-7.7285,-7.7428,-7.7317,-7.7272,-7.7307,-7.7302,-7.7404,-7.7417,-7.7453,-7.7606,-7.7612,-7.7493,-7.7499,-7.7503,-7.7506,0,0,0,0,0,0,0,-7.7008,-7.703,-7.7249,-7.7199,-7.7202,-7.7195,-7.721,-7.7312,-7.7358,-7.7276,-7.7274,-7.7292,-7.7405,-7.7444,-7.7456,-7.7614,-7.7493,-7.7502,-7.7507,-7.7511,-7.7887,-7.7891,0,0,0,0,0,0,-7.6996,-7.7022,-7.7245,-7.7254,-7.7098,-7.7203,-7.7221,-7.7275,-7.7357,-7.7366,-7.7295,-7.729,-7.743,-7.7445,-7.7461,-7.7626,-7.7503,-7.7512,-7.7517,-7.7882,-7.7888,-7.7893,0,0,0,0,0,0,-7.699,-7.7016,-7.7239,-7.7138,-7.7165,-7.7213,-7.7274,-7.728,-7.7319,-7.7372,-7.7379,-7.7326,-7.7427,-7.7448,-7.7566,-7.763,-7.7516,-7.7524,-7.7877,-7.7884,-7.789,-7.7955,0,0,0,0,0,0,-7.6981,-7.7014,-7.7066,-7.7139,-7.7171,-7.7343,-7.7278,-7.7286,-7.7335,-7.733,-7.7403,-7.7411,-7.7426,-7.7552,-7.7575,-7.7641,-7.7532,-7.7872,-7.788,-7.7888,-7.7947,-7.7963,-7.7976,0,0,0,0,0,-7.697,-7.7077,-7.7069,-7.7096,-7.7238,-7.7346,-7.7364,-7.7381,-7.7341,-7.7393,-7.7428,-7.7409,-7.7619,-7.7564,-7.759,-7.7659,-7.7868,-7.7878,-7.7887,-7.7941,-7.796,-7.7976,0,0,0,0,0,0,-7.7008,-7.7086,-7.7079,-7.7212,-7.7273,-7.7342,-7.7409,-7.74,-7.7472,-7.7464,-7.7479,-7.7496,-7.7617,-7.7649,-7.7587,-7.7795,-7.7738,-7.7753,-7.7769,-7.7788,-7.7802,-7.7792,-7.754,0,0,0,0,0,-7.7032,-7.7116,-7.7179,-7.7291,-7.7322,-7.7361,-7.7408,-7.7416,-7.7479,-7.7504,-7.7547,-7.7607,-7.7687,-7.7739,-7.7815,-7.7952,-7.7968,-7.8013,-7.8027,-7.8039,-7.8052,-7.8129,-7.815,-7.7925,-7.7925,-7.7925,0,0,-7.7082,-7.7136,-7.7187,-7.73,-7.7348,-7.7434,-7.7382,-7.7474,-7.7537,-7.7517,-7.7632,-7.7666,-7.7735,-7.7863,-7.7922,-7.7894,-7.8118,-7.8051,-7.806,-7.8067,-7.8141,-7.8162,-7.8181,-7.7932,-7.7931,-7.7929,0,0,-7.7218,-7.7266,-7.7366,-7.7416,-7.7491,-7.7516,-7.754,-7.7611,-7.7634,-7.775,-7.7738,-7.7812,-7.7949,-7.7999,-7.8043,-7.8201,-7.8186,-7.8225,-7.8301,-7.8375,-7.8393,-7.8408,-7.8466,-7.8486,-7.8238,-7.8238,-7.8238,0,-7.727,-7.74,-7.7418,-7.7513,-7.7563,-7.7552,-7.7653,-7.77,-7.7794,-7.7829,-7.7798,-7.7972,-7.8016,-7.8158,-7.8197,-7.8232,-7.8259,-7.8216,-7.8389,-7.8405,-7.842,-7.8475,-7.8497,-7.8242,-7.8242,-7.8241,-7.8241,0,-7.7462,-7.7552,-7.7623,-7.7719,-7.7777,-7.7874,-7.7906,-7.7963,-7.7966,-7.7994,-7.8114,-7.8168,-7.8256,-7.829,-7.8292,-7.8432,-7.8413,-7.8385,-7.8328,-7.8446,-7.8498,-7.8519,-7.8248,-7.8247,-7.8245,-7.8244,0,0,-7.7623,-7.773,-7.7756,-7.78,-7.7883,-7.7952,-7.8049,-7.8138,-7.8187,-7.8253,-7.8335,-7.8453,-7.8428,-7.8478,-7.8486,-7.8551,-7.8675,-7.8515,-7.8517,-7.8544,-7.8834,-7.8855,-7.8879,-7.8666,-7.867,-7.8673,-7.8829,0,-7.7768,-7.7941,-7.7961,-7.8115,-7.8199,-7.8191,-7.8276,-7.8335,-7.8365,-7.844,-7.8471,-7.8556,-7.8516,-7.8546,-7.8611,-7.8646,-7.8733,-7.8635,-7.8742,-7.8745,-7.8726,-7.8906,-7.8928,-7.9072,-7.8849,-7.8852,-7.8855,0,-7.7959,-7.8034,-7.8197,-7.8271,-7.8307,-7.8383,-7.8467,-7.8539,-7.8607,-7.8624,-7.8681,-7.8681,-7.8781,-7.872,-7.8858,-7.8791,-7.8835,-7.886,-7.8866,-7.8876,-7.8807,-7.8923,-7.9118,-7.914,-7.8887,-7.8884,-7.8882,0,-7.8062,-7.8204,-7.8321,-7.8359,-7.8447,-7.8501,-7.854,-7.8604,-7.8657,-7.873,-7.8765,-7.8847,-7.8893,-7.8957,-7.8979,-7.8933,-7.9117,-7.9057,-7.9133,-7.9133,-7.9172,-7.917,-7.9379,-7.92,-7.92,-7.92,-7.9199,0,-7.8222,-7.8322,-7.8369,-7.8441,-7.8553,-7.8575,-7.8686,-7.8722,-7.878,-7.8858,-7.8855,-7.8928,-7.8954,-7.9031,-7.9049,-7.9162,-7.9181,-7.9198,-7.9202,-7.9199,-7.9197,-7.9228,-7.9219,-7.9205,-7.9204,-7.9203,-7.9202,0,-7.8356,-7.8391,-7.8519,-7.8593,-7.8614,-7.8694,-7.8758,-7.8827,-7.8856,-7.8956,-7.898,-7.9026,-7.9117,-7.9147,-7.9256,-7.9268,-7.94,-7.9394,-7.9378,-7.9378,-7.9454,-7.9447,-7.9691,-7.9725,-7.9523,-7.9525,-7.9527,0,-7.8456,-7.8533,-7.8618,-7.8671,-7.8713,-7.8799,-7.8854,-7.8879,-7.8936,-7.9021,-7.908,-7.9171,-7.9245,-7.9391,-7.9434,-7.9518,-7.9515,-7.9595,-7.9527,-7.9523,-7.9517,-7.9513,-7.9521,-7.9607,-7.9609,-7.9611,-7.9612,0,-7.8629,-7.8644,-7.8724,-7.8813,-7.8879,-7.8949,-7.9016,-7.9059,-7.9094,-7.9158,-7.9253,-7.9311,-7.9425,-7.9515,-7.9602,-7.964,-7.9633,-7.9634,-7.9656,-7.9654,-7.9642,-7.9651,-7.9413,-7.9628,-7.9626,-7.9625,-7.9624,-7.9624,-7.875,-7.882,-7.8891,-7.8982,-7.9036,-7.9099,-7.9169,-7.9209,-7.9289,-7.9385,-7.9394,-7.9497,-7.9564,-7.968,-7.9723,-7.9803,-7.978,-7.9812,-7.982,-7.9828,-7.9835,-7.9629,-7.9819,-7.9818,-7.9818,-7.9817,-7.9817,0,-7.8925,-7.8971,-7.9055,-7.915,-7.9222,-7.9211,-7.9285,-7.9345,-7.9437,-7.9501,-7.9575,-7.9685,-7.9774,-7.9824,-7.9913,-7.9967,-7.9966,-7.9989,-7.9986,-7.9995,-7.985,-7.9822,-7.9989,-7.9989,-7.9989,-7.9989,-7.9989,-7.9989,-7.9024,-7.9143,-7.9166,-7.9311,-7.9356,-7.9459,-7.9502,-7.9561,-7.9613,-7.9737,-7.9812,-7.9845,-7.9904,-7.9997,-8.0078,-8.009,-8.0123,-8.015,-8.016,-8.0023,-8.0005,-7.9988,-7.9963,-8.0157,-8.0157,-8.0299,-8.03,-8.0301]}]]